Weather History for Fallon NAS, NV

Change the Weather History Date:

Sunday, December 2, 2012

  Actual Average Record
Temperature  
Mean Temperature 45 °F -  
Max Temperature 60 °F 52 °F 69 °F (1977)
Min Temperature 28 °F 21 °F 5 °F (1931)
Degree Days  
Heating Degree Days 20    
Moisture  
Dew Point 34 °F    
Average Humidity 57    
Maximum Humidity 79    
Minimum Humidity 38    
Precipitation  
Precipitation 0.00 in - - ()
Sea Level Pressure  
Sea Level Pressure 29.77 in    
Wind  
Wind Speed 16 mph (SSW)    
Max Wind Speed 36 mph    
Max Gust Speed 54 mph    
Visibility 9 miles    
Events Rain    
Averages and records for this station are not official NWS values.
T = Trace of Precipitation, MM = Missing Value Source: NWS Daily Summary

Daily Weather History Graph

Daily Weather History Graph

Search for Another Location

Airport:

Trip Planner

Search our weather history database for the weather conditions in past years. The results will help you decide how hot, cold, wet, or windy it might be!

Date:

Astronomy

Dec. 02, 2012 Rise Set
Actual Time 6:57 AM PST 4:31 PM PST
Civil Twilight 6:27 AM PST 5:01 PM PST
Nautical Twilight 5:54 AM PST 5:34 PM PST
Astronomical Twilight 5:21 AM PST 6:07 PM PST
Moon 8:23 PM PST (12/2) 9:50 AM PST (12/2)
Length of Visible Light 10h 33m
Length of Day
9h 34m
Waning Gibbous, 85% of the Moon is Illuminated
Dec 2
Waning Gibbous
Dec 6
Last Quarter
Dec 13
New
Dec 19
First Quarter
Dec 28
Full

Hourly Weather History & Observations

Time (PST) Temp. Windchill Dew Point Humidity Pressure Visibility Wind Dir Wind Speed Gust Speed Precip Events Conditions
12:56 AM 51.1 °F - 35.1 °F 54% 29.73 in 10.0 mi South 15.0 mph - N/A   Mostly Cloudy
1:56 AM 52.0 °F - 35.1 °F 53% 29.70 in 10.0 mi South 18.4 mph - N/A   Partly Cloudy
2:56 AM 53.1 °F - 35.1 °F 50% 29.68 in 10.0 mi SSW 20.7 mph - N/A   Clear
3:56 AM 51.1 °F - 35.1 °F 54% 29.66 in 10.0 mi SSE 13.8 mph - N/A   Clear
4:56 AM 53.1 °F - 35.1 °F 50% 29.63 in 10.0 mi South 20.7 mph 26.5 mph N/A   Clear
5:56 AM 55.0 °F - 34.0 °F 45% 29.60 in 10.0 mi South 18.4 mph 26.5 mph N/A   Clear
6:56 AM 57.0 °F - 34.0 °F 42% 29.60 in 9.0 mi SSE 15.0 mph - N/A   Overcast
7:56 AM 55.9 °F - 34.0 °F 44% 29.58 in 10.0 mi South 11.5 mph - N/A   Clear
8:56 AM 60.1 °F - 34.0 °F 38% 29.62 in 10.0 mi WSW 23.0 mph 28.8 mph N/A   Overcast
9:56 AM 60.1 °F - 36.0 °F 41% 29.65 in 3.0 mi SSW 35.7 mph 54.1 mph N/A   Haze
10:56 AM 59.0 °F - 37.0 °F 44% 29.68 in 7.0 mi SW 23.0 mph 38.0 mph N/A   Mostly Cloudy
11:01 AM 59.0 °F - 37.4 °F 45% 29.74 in 5.0 mi SW 21.9 mph 38.0 mph N/A   Haze
11:56 AM 54.0 °F - 43.0 °F 66% 29.75 in 10.0 mi West 21.9 mph 33.4 mph 0.00 in Rain Light Rain
12:56 PM 50.0 °F - 41.0 °F 71% 29.75 in 10.0 mi SSW 13.8 mph - 0.00 in Rain Light Rain
1:27 PM 51.8 °F - 42.8 °F 71% 29.80 in 10.0 mi South 16.1 mph 20.7 mph 0.00 in   Mostly Cloudy
1:56 PM 52.0 °F - 39.0 °F 61% 29.75 in 10.0 mi SW 17.3 mph 24.2 mph 0.00 in   Scattered Clouds
2:56 PM 53.1 °F - 39.0 °F 59% 29.79 in 10.0 mi WSW 8.1 mph - N/A   Mostly Cloudy
3:56 PM 52.0 °F - 36.0 °F 54% 29.81 in 10.0 mi WSW 13.8 mph 25.3 mph N/A   Scattered Clouds
4:56 PM 48.9 °F - 28.9 °F 46% 29.86 in 10.0 mi WNW 11.5 mph - N/A   Partly Cloudy
5:56 PM 44.1 °F 39.0 °F 28.9 °F 55% 29.87 in 10.0 mi NNW 9.2 mph - N/A   Partly Cloudy
6:56 PM 41.0 °F 35.8 °F 28.0 °F 60% 29.91 in 10.0 mi NNW 8.1 mph - N/A   Clear
7:56 PM 41.0 °F - 28.0 °F 60% 29.94 in 10.0 mi Calm Calm - N/A   Clear
8:56 PM 34.0 °F - 26.1 °F 73% 29.94 in 10.0 mi Calm Calm - N/A   Clear
9:56 PM 30.0 °F 22.4 °F 24.1 °F 79% 29.96 in 10.0 mi East 8.1 mph - N/A   Clear
10:56 PM 30.0 °F - 24.1 °F 79% 29.97 in 10.0 mi Calm Calm - N/A   Clear
11:56 PM 28.0 °F 22.8 °F 21.9 °F 78% 30.00 in 10.0 mi West 4.6 mph - N/A   Clear